Hourly Weather Rio Bueno

Today, 26 October, Monday

Time Temperature Precipitation Wind Pressure Humidity
00:00 +4°C° 0 mm 1 mps 762 mmHg 96%
01:00 +4°C° 0 mm 1 mps 761 mmHg 97%
02:00 +4°C° 0 mm 1 mps 761 mmHg 97%
03:00 +4°C° 0 mm 1 mps 760 mmHg 96%
04:00 +4°C° 0 mm 1 mps 759 mmHg 96%
05:00 +6°C° 0 mm 1 mps 759 mmHg 88%
06:00 +7°C° 0 mm 1 mps 759 mmHg 81%
07:00 +9°C° 0 mm 1 mps 758 mmHg 73%
08:00 +10°C° 0.1 mm 1 mps 758 mmHg 73%
09:00 +10°C° 0.1 mm 2 mps 757 mmHg 73%
10:00 +10°C° 0.1 mm 2 mps 757 mmHg 73%
11:00 +12°C° 0.1 mm 2 mps 756 mmHg 69%
12:00 +13°C° 0.1 mm 2 mps 756 mmHg 66%
13:00 +12°C° 0.1 mm 3 mps 755 mmHg 62%
14:00 +12°C° 0.1 mm 3 mps 755 mmHg 68%
15:00 +11°C° 0.1 mm 3 mps 754 mmHg 73%
16:00 +10°C° 0.1 mm 3 mps 754 mmHg 79%
17:00 +10°C° 1.4 mm 3 mps 754 mmHg 85%
18:00 +9°C° 1.4 mm 3 mps 754 mmHg 92%
19:00 +9°C° 1.4 mm 3 mps 754 mmHg 98%
20:00 +9°C° 0.6 mm 2 mps 755 mmHg 98%
21:00 +10°C° 0.6 mm 1 mps 755 mmHg 98%
22:00 +9°C° 0.6 mm 1 mps 755 mmHg 98%
23:00 +9°C° 0.1 mm 1 mps 755 mmHg 98%

Tomorrow, 27 October, Tuesday

Time Temperature Precipitation Wind Pressure Humidity
00:00 +8°C° 0.1 mm 1 mps 755 mmHg 98%
01:00 +7°C° 0.1 mm 1 mps 755 mmHg 98%
02:00 +7°C° 0 mm 1 mps 755 mmHg 98%
03:00 +5°C° 0 mm 0 mps 755 mmHg 98%
04:00 +5°C° 0 mm 0 mps 755 mmHg 98%
05:00 +7°C° 0.1 mm 1 mps 755 mmHg 96%
06:00 +8°C° 0.1 mm 1 mps 755 mmHg 95%
07:00 +9°C° 0.1 mm 1 mps 755 mmHg 94%
08:00 +9°C° 0.5 mm 2 mps 756 mmHg 92%
09:00 +9°C° 0.5 mm 2 mps 756 mmHg 90%
10:00 +10°C° 0.5 mm 3 mps 756 mmHg 89%
11:00 +10°C° 0.7 mm 3 mps 756 mmHg 82%
12:00 +11°C° 0.7 mm 3 mps 757 mmHg 75%
13:00 +11°C° 0.7 mm 3 mps 757 mmHg 68%
14:00 +11°C° 0.2 mm 3 mps 758 mmHg 61%
15:00 +12°C° 0.2 mm 3 mps 758 mmHg 55%
16:00 +12°C° 0.2 mm 4 mps 758 mmHg 49%
17:00 +10°C° 0 mm 3 mps 759 mmHg 58%
18:00 +8°C° 0 mm 2 mps 759 mmHg 67%
19:00 +7°C° 0 mm 1 mps 760 mmHg 77%
20:00 +6°C° 0 mm 1 mps 761 mmHg 83%
21:00 +5°C° 0 mm 1 mps 761 mmHg 89%
22:00 +4°C° 0 mm 1 mps 762 mmHg 95%
23:00 +3°C° 0 mm 0 mps 762 mmHg 96%

Day after tomorrow, 28 October, Wednesday

Time Temperature Precipitation Wind Pressure Humidity
00:00 +2°C° 0 mm 0 mps 763 mmHg 96%
01:00 +2°C° 0 mm 0 mps 763 mmHg 97%
02:00 +3°C° 0 mm 1 mps 763 mmHg 97%
03:00 +3°C° 0 mm 1 mps 764 mmHg 96%
04:00 +3°C° 0 mm 1 mps 764 mmHg 96%
05:00 +5°C° 0 mm 1 mps 764 mmHg 89%
06:00 +7°C° 0 mm 1 mps 765 mmHg 81%
07:00 +9°C° 0 mm 1 mps 765 mmHg 74%
08:00 +11°C° 0 mm 1 mps 765 mmHg 69%
09:00 +13°C° 0 mm 1 mps 765 mmHg 63%
10:00 +14°C° 0 mm 0 mps 765 mmHg 57%
11:00 +14°C° 0.1 mm 0 mps 765 mmHg 58%
12:00 +15°C° 0.1 mm 1 mps 765 mmHg 58%
13:00 +15°C° 0.1 mm 1 mps 765 mmHg 58%
14:00 +15°C° 0.1 mm 1 mps 765 mmHg 61%
15:00 +15°C° 0.1 mm 1 mps 765 mmHg 64%
16:00 +15°C° 0.1 mm 2 mps 765 mmHg 66%
17:00 +13°C° 0 mm 1 mps 765 mmHg 74%
18:00 +11°C° 0 mm 1 mps 765 mmHg 83%
19:00 +9°C° 0 mm 1 mps 766 mmHg 91%
20:00 +8°C° 0 mm 1 mps 766 mmHg 92%
21:00 +7°C° 0 mm 1 mps 766 mmHg 93%
22:00 +6°C° 0 mm 1 mps 766 mmHg 94%
23:00 +5°C° 0 mm 1 mps 766 mmHg 96%

29 October, Thursday

Time Temperature Precipitation Wind Pressure Humidity
00:00 +5°C° 0 mm 1 mps 765 mmHg 97%
01:00 +3°C° 0 mm 0 mps 765 mmHg 98%
02:00 +3°C° 0 mm 0 mps 765 mmHg 98%
03:00 +2°C° 0 mm 0 mps 765 mmHg 98%
04:00 +2°C° 0 mm 0 mps 765 mmHg 98%
05:00 +5°C° 0 mm 1 mps 764 mmHg 95%
06:00 +6°C° 0 mm 1 mps 764 mmHg 92%
07:00 +8°C° 0 mm 1 mps 764 mmHg 89%
08:00 +10°C° 0 mm 1 mps 763 mmHg 77%
09:00 +13°C° 0 mm 2 mps 763 mmHg 65%
10:00 +15°C° 0 mm 2 mps 762 mmHg 53%
11:00 +17°C° 0 mm 2 mps 762 mmHg 49%
12:00 +18°C° 0 mm 3 mps 761 mmHg 46%
13:00 +19°C° 0 mm 3 mps 761 mmHg 42%
14:00 +19°C° 0 mm 3 mps 760 mmHg 43%
15:00 +18°C° 0 mm 3 mps 760 mmHg 45%
16:00 +18°C° 0 mm 3 mps 760 mmHg 46%
17:00 +16°C° 0 mm 3 mps 760 mmHg 51%
18:00 +13°C° 0 mm 3 mps 760 mmHg 56%
19:00 +12°C° 0 mm 2 mps 760 mmHg 61%
20:00 +10°C° 0 mm 2 mps 760 mmHg 67%
21:00 +9°C° 0 mm 2 mps 760 mmHg 73%
22:00 +9°C° 0 mm 1 mps 761 mmHg 78%
23:00 +8°C° 0 mm 1 mps 760 mmHg 84%

30 October, Friday

Time Temperature Precipitation Wind Pressure Humidity
00:00 +8°C° 0 mm 1 mps 760 mmHg 89%
01:00 +7°C° 0 mm 1 mps 760 mmHg 94%
02:00 +7°C° 0 mm 1 mps 760 mmHg 94%
03:00 +7°C° 0 mm 1 mps 760 mmHg 94%
04:00 +8°C° 0 mm 1 mps 760 mmHg 93%
05:00 +8°C° 0 mm 1 mps 760 mmHg 90%
06:00 +9°C° 0 mm 1 mps 760 mmHg 87%
07:00 +10°C° 0 mm 1 mps 760 mmHg 84%
08:00 +12°C° 0 mm 1 mps 760 mmHg 77%
09:00 +13°C° 0 mm 1 mps 760 mmHg 70%
10:00 +15°C° 0 mm 1 mps 759 mmHg 62%
11:00 +19°C° 0 mm 1 mps 759 mmHg 56%
12:00 +20°C° 0 mm 2 mps 759 mmHg 50%
13:00 +23°C° 0 mm 2 mps 759 mmHg 43%
14:00 +23°C° 0 mm 2 mps 759 mmHg 45%
15:00 +23°C° 0 mm 2 mps 759 mmHg 46%
16:00 +23°C° 0 mm 2 mps 759 mmHg 47%
17:00 +19°C° 0 mm 2 mps 759 mmHg 53%
18:00 +17°C° 0 mm 2 mps 760 mmHg 60%
19:00 +14°C° 0 mm 1 mps 760 mmHg 66%
20:00 +12°C° 0 mm 1 mps 761 mmHg 74%
21:00 +10°C° 0 mm 1 mps 761 mmHg 83%
22:00 +9°C° 0 mm 1 mps 761 mmHg 92%
23:00 +8°C° 0 mm 1 mps 761 mmHg 94%

31 October, Saturday

Time Temperature Precipitation Wind Pressure Humidity
00:00 +7°C° 0 mm 0 mps 761 mmHg 96%
01:00 +6°C° 0 mm 0 mps 761 mmHg 98%
Show more

We Need Your Consent

Meteoprog and our Service Providers may store and access personal data such as cookies, device identifiers or other similar technologies on your device and process such data to personalise content and ads, as well as provide social media features and to analyse the traffic.

  • Store and/or access information on your device

    Cookies, device identifiers or other information can be stored or accessed on your device for the purposes indicated above.

  • Personalised ads and content, ad and content measurement, audience insights, and products development

    Ads and content can be personalised based on a profile. More data can be added to better personalise ads and content. Ad and content performance can be measured. Insights about the audience who saw the ads and content can be derived. Such data can be used to develop or improve user’s experience, systems and software.

By clicking ‘I Agree’ you will allow the use of indicated cookies, device identifiers, web beacons or other similar technologies. Your settings can be changed in the browser on your device.

For certain purposes, legitimate interests may be relied on, rather than consent. You can read more about this in our Privacy and Cookie Policy.